Regional Weather Roundup
Issued by NWS

Home | Current Version | Previous Version | Graphics & Text | Print | Product List | Glossary On
Versions: 1 2 3 4 5 6 7 8 9 10 11 12 13 14 15 16 17 18 19 20 21 22 23 24 25 26 27 28 29 30 31 32 33 34 35 36 37 38 39 40 41 42 43 44 45 46 47 48 49 50
822
ASUS45 KTFX 072310
RWRMT
MONTANA REGIONAL WEATHER ROUNDUP
NATIONAL WEATHER SERVICE GREAT FALLS MT
400 PM MST WED DEC 07 2016

NOTE: "FAIR" INDICATES FEW OR NO CLOUDS BELOW 12000 FEET WITH NO
SIGNIFICANT WEATHER AND/OR OBSTRUCTIONS TO VISIBILITY.

MTZ001>007-043-080000-
WEST OF THE DIVIDE

CITY           SKY/WX    TMP DP  RH WIND       PRES   REMARKS
KALISPELL      MOCLDY     7  -2  66 NE5       30.46S
MISSOULA       CLOUDY    15   3  59 E12       30.43S WCI   2
BUTTE          CLOUDY     7  -1  70 S3        30.25R
MULLAN PASS    CLOUDY     5   2  87 SE3       30.16S
ANACONDA         N/A      9  -2  61 CALM      30.30S
DEER LODGE       N/A      9  -2  61 CALM      30.35S
EUREKA           N/A      7   1  78 CALM      30.52R
HAMILTON         N/A     16   5  62 N5        30.37R
LIBBY            N/A     18   1  49 CALM      30.47R
RONAN            N/A     15   8  73 CALM      30.42S
$$

MTZ008-052>055-080000-
SOUTHWEST MONTANA

CITY           SKY/WX    TMP DP  RH WIND       PRES   REMARKS
BOZEMAN        CLOUDY     7  -2  66 CALM      30.38R
DILLON         CLEAR     10  -2  58 N7        30.26R WCI  -1
W YELLOWSTONE  PTCLDY     7  -4  61 SW5       30.17R
ENNIS          PTCLDY     7  -2  66 CALM      30.32R
THREE FORKS      N/A      8   8 100 NW1       30.34R
TWIN BRIDGES     N/A     10  -7  46 N12       30.24S WCI  -5
$$

MTZ009-010-012-014-046-048-049-054-080000-
EAST SLOPES AND CENTRAL MONTANA

CITY           SKY/WX    TMP DP  RH WIND       PRES   REMARKS
CUT BANK       CLEAR     -3 -11  68 NW7       30.47S WCI -16
GREAT FALLS    CLOUDY     1  -7  68 SW3       30.49R
MALMSTROM AFB  MOCLDY     2  -5  72 W3        30.52R
HELENA         CLOUDY     6  -6  57 CALM      30.44S
AUGUSTA        FLURRIES  -1  -8  71 NE3       30.40S
BOWMANS CRNR   CLOUDY    -2  -9  74 NE5       30.40R
CHOTEAU          N/A      1  -8  66 MISG      30.48S
CONRAD           N/A     -3 -10  72 W2        30.45F
FAIRFIELD      FLURRIES   1  -6  71 W3        30.46S
POWER          CLOUDY     0  -6  75 N6        30.47R WCI -12
RAYNESFORD     CLOUDY    -2  -8  74 SW5       30.46R
ULM            CLOUDY     1  -7  69 N6        30.50S WCI -11
$$

MTZ011-013-016-021-045-047-050-051-080000-
NORTH CENTRAL MONTANA

CITY           SKY/WX    TMP DP  RH WIND       PRES   REMARKS
HAVRE          CLEAR      2  -7  66 NW10      30.60R WCI -14
LEWISTOWN      CLEAR      0  -7  72 W6        30.43S WCI -12
N BAR RANCH    CLOUDY     0 -11  60 NW12      30.40R WCI -18
CHINOOK          N/A      1  -8  66 W14       30.61R WCI -17
DENTON           N/A      1  -6  71 N13       30.46R WCI -16
GEYSER           N/A     -2  -9  72 W13G18    30.43R WCI -20
GRASS RANGE      N/A      2  -6  70 SW14      30.42R WCI -17
JUDITH GAP     CLOUDY    -3  -8  79 N14G20    30.36R WCI -23
ROY              N/A      2  -5  74 MISG      30.46R
STANFORD         N/A     -4 -10  75 NW8       30.41R WCI -19
WINIFRED       FLURRIES   1  -5  77 MISG      30.47R
$$

MTZ017>020-022>027-061-062-080000-
NORTHEAST MONTANA

CITY           SKY/WX    TMP DP  RH WIND       PRES   REMARKS
GLASGOW        CLOUDY     2  -7  66 NW16G31   30.54R WCI -18
JORDAN           N/A      4  -5  66 NW14      30.53R WCI -14
SIDNEY         PTCLDY     2  -6  69 NW23G30   30.49S WCI -21
WOLF POINT     CLOUDY     5  -5  63 NW17      30.56R WCI -14
PLENTYWOOD       N/A      0  -8  71 W15       30.46R WCI -20
POPLAR           N/A      3  -8  60 W14       30.55R WCI -15
$$

MTZ028>42-056>058-080000-
SOUTHCENTRAL AND SOUTHEAST MONTANA

CITY           SKY/WX    TMP DP  RH WIND       PRES   REMARKS
BAKER          CLOUDY     2  -5  72 NW21G29   30.43  WCI -20
BILLINGS       PTCLDY    11  -3  53 NE3       30.44R
LIVINGSTON     CLEAR      6  -5  60 W10       30.34R WCI  -9
MILES CITY     CLEAR      8  -5  55 NW15      30.52R WCI  -9
BIG TIMBER     PTCLDY     7   0  72 SE5       30.39R
FORSYTH          N/A      9  -6  52 NW12      30.52R WCI  -6
HARLOWTON        N/A      1  -8  65 N17       30.37R WCI -19
LAUREL           N/A     12  -7  42 E1        30.37R
ROUNDUP          N/A      8 -11  42 N5        30.34R
$$

REGIONAL REPORTS...DAKOTAS

CITY           SKY/WX    TMP DP  RH WIND       PRES   REMARKS
WILLISTON      CLOUDY     3  -5  69 NW14      30.49R WCI -15
MINOT          LGT SNOW   5   0  79 W33G41    30.32R WCI -20
DICKINSON      PTCLDY    -1  -8  72 W25       30.36R HAZE    WCI -25
BEACH          CLOUDY     0  -2  92 NW20      30.46R WCI -22
CROSBY         CLOUDY     3   0  85 NW24G30   30.46R FOG     WCI -20
TIOGA          LGT SNOW   1   0  92 NW28G36   30.40R WCI -23
WATFORD CITY   CLOUDY     1  -4  78 NW16G22   30.46R WCI -18
BISMARCK       CLOUDY     4  -2  76 W25G36    30.36R WCI -19
GRAND FORKS    LGT SNOW  20  15  81 NW22G33   30.07R VSB 1   WCI   3
FARGO          LGT SNOW  16   9  74 W28G37    30.11R WCI  -4
BUFFALO SD       N/A      4  -5  66 NW25G36   30.32R WCI -19
RAPID CITY     MOCLDY     9  -4  55 N23G30    30.36R WCI -11
$$

REGIONAL REPORTS...WYOMING/IDAHO/WASHINGTON

CITY           SKY/WX    TMP DP  RH WIND       PRES   REMARKS
GILLETTE       PTCLDY     2  -4  76 NW10      30.36R WCI -14
SHERIDAN       CLEAR      3  -6  66 SW5       30.41R
BUFFALO WY     CLEAR      0  -9  65 CALM      30.33R
CODY           CLEAR      3  -3  76 S5        30.32R
YELLOWSTONE LA   N/A      4  -3  73 W6        30.10R WCI  -7
IDAHO FALLS    MOCLDY    20   5  52 NE5       30.30R
SALMON         MOCLDY    19   7  58 CALM      30.30R
BOISE          CLEAR     24  17  74 S10       30.36S WCI  14
SPOKANE        PTCLDY    27  13  55 NE9       30.40S WCI  18
$$

REGIONAL REPORTS...ALBERTA

CITY           SKY/WX    TMP DP  RH WIND       PRES   REMARKS
EDMONTON       MOCLDY    -6 -15  65 N5        30.66R
CALGARY        PTCLDY    -4 -13  65 N8        30.49S WCI -19
LETHBRIDGE     CLEAR     -2 -11  65 NW7       30.57R WCI -16
MEDICINE HAT   PTCLDY    -2  -9  71 SW10      30.62R WCI -19
WATERTON GATE    N/A     -6 -15  65 E1          N/A
CARDSTON         N/A     -2 -11  65 S3          N/A
MILK RIVER       N/A     -2 -11  65 NW9         N/A  WCI -18
ONEFOUR          N/A     -4 -11  71 W14         N/A  WCI -24
$$

REGIONAL REPORTS...SASKATCHEWAN

CITY           SKY/WX    TMP DP  RH WIND       PRES   REMARKS
SWIFT CURRENT  CLOUDY    -6  -9  84 NW20G25   30.49R WCI -29
REGINA         CLOUDY     3  -2  78 NW15      30.47R WCI -15
SASKATOON      PTCLDY     1  -4  78 NW13      30.56R WCI -16
ROCKGLEN         N/A     -6 -11  77 NW13G20     N/A  WCI -25
ASSINIBOIA       N/A     -4 -11  71 N6          N/A  WCI -16
$$




USA.gov is the U.S. government's official web portal to all federal, state and local government web resources and services.